Wind_Speed
9 10 10 10 10 9 9 10 10 10 10 10 11 11 12 12 12 12 12 13 14 14 15 15 16 17 17 18 18 18 19 19 19 19 18 18 18 18 18 18 18 19 20
11 11 11 11 11 11 11 12 12 11 11 11 12 12 13 13 13 13 14 14 15 16 16 17 18 18 18 19 19 20 20 20 20 20 20 20 19 19 20 20 20 20 21
13 12 12 12 13 13 13 13 13 13 13 13 13 14 14 14 14 14 15 16 17 17 18 18 19 19 20 20 21 21 21 21 22 21 21 21 21 21 21 21 22 22 22
14 13 14 14 14 14 15 15 15 15 14 14 14 15 15 15 15 16 17 17 18 18 19 19 20 21 21 22 22 22 23 23 23 23 24 24 23 23 23 24 24 24 24
15 15 15 16 17 17 16 16 16 16 16 15 16 16 16 16 17 18 18 18 19 20 20 21 21 22 23 24 24 25 25 25 25 26 26 26 26 26 26 27 26 26 26
17 17 17 17 18 19 18 18 18 18 17 17 17 18 18 19 19 20 20 20 21 21 22 23 23 23 24 25 26 26 27 27 27 28 28 28 28 28 29 29 29 28 28
19 19 19 19 20 20 20 20 20 20 19 19 19 19 20 21 21 21 21 22 22 23 24 24 24 25 25 26 27 28 29 29 29 30 30 31 31 31 31 31 30 30 30
21 21 21 21 21 21 21 21 22 22 21 21 21 22 22 23 23 24 24 23 24 25 25 25 26 27 27 28 29 30 31 31 32 33 33 33 33 32 33 33 33 33 33
22 22 22 22 23 23 23 23 24 24 24 24 24 24 25 25 25 25 25 25 25 26 27 27 28 29 29 30 31 32 33 33 34 34 34 35 35 34 34 34 34 34 34
23 24 24 25 25 25 25 25 26 26 27 27 26 27 27 27 26 26 27 27 27 28 28 29 29 30 31 32 33 33 33 34 35 35 35 35 35 35 35 35 34 34 35
24 25 26 26 27 27 27 27 28 28 29 28 28 28 29 29 29 29 29 30 30 30 30 30 31 31 32 33 34 34 34 35 35 35 36 36 36 36 36 36 36 36 36
26 27 27 28 29 30 30 30 30 30 30 29 29 30 30 31 32 32 32 33 33 33 33 33 34 34 35 36 36 36 36 36 36 37 37 37 37 37 37 37 37 37 37
27 28 29 29 30 31 31 32 32 32 32 32 32 33 33 33 34 34 35 35 35 35 36 36 36 37 37 38 38 38 38 38 38 39 39 38 37 36 36 38 38 38 37
29 30 30 31 32 32 32 32 33 34 34 35 35 35 34 35 36 36 37 37 38 38 38 39 39 39 39 39 39 39 40 40 40 39 39 38 37 37 38 38 38 38 37
31 31 32 32 33 33 33 33 33 34 35 35 35 35 36 36 37 37 38 39 40 40 40 41 40 40 40 40 40 41 41 42 41 41 40 40 39 39 39 39 39 39 39
33 32 33 33 33 33 33 33 33 34 34 35 35 36 36 37 38 39 40 40 40 41 41 41 41 41 41 41 41 42 42 42 41 41 41 41 40 39 39 39 40 40 40
33 33 33 33 33 34 34 35 35 35 36 36 36 37 38 39 40 41 41 41 42 42 42 42 42 42 42 41 42 42 42 42 42 41 41 41 40 40 40 40 41 41 41
33 33 34 34 34 35 35 36 36 37 36 37 39 39 40 41 42 42 42 42 42 43 43 42 42 42 42 42 42 42 42 41 41 41 41 41 41 41 41 41 41 41 41
34 34 34 35 35 36 36 37 38 38 38 38 38 39 40 41 42 42 42 42 42 42 42 42 42 42 42 42 41 41 40 40 41 41 41 41 42 42 42 42 42 41 41
35 35 35 36 36 37 38 38 38 38 38 38 38 40 40 40 40 40 41 41 40 40 41 42 41 41 41 41 41 41 41 41 41 41 42 43 43 43 43 43 42 41 41
36 36 36 36 37 37 38 38 38 38 39 39 40 40 40 40 40 40 40 40 40 40 40 41 41 41 41 41 41 41 41 41 42 42 42 42 42 42 41 42 41 41 40
35 35 36 36 37 38 38 39 39 39 39 39 40 40 41 40 40 40 40 40 40 41 40 40 40 40 39 39 40 40 41 42 42 42 42 42 43 42 42 41 41 41 40
34 35 35 36 37 38 38 38 39 40 41 40 41 41 40 39 39 39 40 40 40 40 39 39 39 39 39 40 40 41 41 41 41 41 41 41 42 42 41 40 39 39 38
35 35 36 36 37 37 37 38 39 40 40 40 40 39 39 39 39 39 40 40 40 40 40 39 39 39 39 40 40 41 41 41 41 40 40 40 40 40 40 39 39 38 37
36 36 36 36 36 37 38 39 39 39 39 39 39 40 40 40 40 40 40 40 39 38 38 39 38 39 39 40 40 40 39 39 40 39 38 38 38 38 39 39 38 37 36
36 36 36 36 37 37 38 38 39 39 39 39 39 40 41 40 39 39 39 39 38 38 38 38 39 39 40 39 38 38 38 38 38 38 37 37 37 37 37 36 36 36 34
Wind_Direction
300 301 300 299 298 300 300 303 308 308 308 308 311 310 311 312 311 311 310 312 315 317 319 320 320 322 324 324 325 325 325 326 326 326 322 320 320 320 321 321 320 318 317
299 300 300 300 299 295 294 297 299 302 304 303 306 309 309 308 308 309 311 311 312 314 315 317 318 319 319 319 319 319 320 321 320 320 321 319 317 316 315 315 315 314 314
298 299 300 301 301 298 295 292 294 294 295 295 299 302 304 303 303 305 307 309 312 314 315 315 315 315 316 315 316 315 314 314 313 313 315 316 315 314 314 314 314 313 312
295 297 297 298 298 296 295 293 292 291 290 291 294 297 299 300 301 302 305 307 309 311 313 313 312 312 312 313 312 311 310 310 309 309 310 311 311 310 309 310 310 310 310
292 294 294 294 295 295 294 295 294 291 290 290 293 295 298 300 300 301 303 305 306 307 309 310 310 310 311 310 309 308 308 307 307 306 306 307 308 307 306 306 306 307 306
287 289 290 293 295 295 297 297 297 294 291 290 290 293 295 298 298 298 300 302 303 304 306 307 308 308 308 307 307 308 307 306 306 305 304 305 305 304 304 304 304 304 303
285 286 287 290 292 291 293 295 296 295 291 290 291 292 294 295 296 296 298 300 301 302 304 306 307 307 306 306 306 305 305 305 305 304 303 303 303 302 302 302 302 302 302
283 285 287 288 290 290 292 294 295 296 293 294 295 294 295 295 295 297 299 300 301 302 303 304 304 304 303 304 304 304 304 304 304 303 302 301 300 300 300 300 299 299 299
283 285 286 285 288 290 292 294 294 294 294 294 295 294 296 297 297 297 298 300 301 301 301 302 304 304 303 303 303 303 303 303 303 302 300 299 299 298 299 298 298 298 298
282 283 284 286 288 289 289 290 292 292 292 292 293 292 292 293 295 296 298 299 300 300 300 301 302 302 303 303 304 304 303 302 301 301 301 300 300 298 298 297 297 297 297
282 282 283 284 285 287 287 287 288 289 291 291 291 290 290 291 293 295 296 297 298 298 300 301 301 302 303 303 304 304 304 303 302 302 302 302 301 301 298 296 296 296 296
282 284 285 285 286 287 286 286 287 288 289 290 290 289 289 290 291 292 293 294 295 297 299 300 300 301 302 302 302 302 303 303 302 303 302 301 301 301 300 298 296 296 296
282 284 285 286 286 286 285 285 285 286 286 287 288 288 288 289 290 290 291 293 294 295 297 298 298 299 299 300 300 301 301 301 301 301 301 301 300 300 299 299 298 297 297
282 284 285 285 285 286 285 285 286 286 285 286 287 288 289 290 290 291 291 291 292 293 294 295 296 297 297 298 298 299 299 299 300 300 301 300 300 300 299 298 297 296 296
281 283 285 286 286 285 286 287 287 287 287 287 288 289 289 290 291 291 291 292 293 293 294 294 294 295 296 296 297 297 297 296 297 298 299 300 301 300 300 298 297 297 296
281 282 284 285 286 285 285 286 287 288 289 290 290 290 291 292 292 292 292 292 293 294 294 295 295 295 295 295 295 295 296 296 296 297 298 299 300 300 300 299 299 299 298
280 281 282 284 285 285 285 285 286 286 288 290 290 290 291 292 292 293 293 293 293 293 293 294 294 295 295 295 295 296 296 295 295 296 297 298 299 299 299 299 299 299 299
279 281 282 283 283 284 285 286 286 288 290 291 291 291 292 292 292 292 292 293 293 293 293 294 295 295 294 294 295 295 295 296 296 296 297 297 298 298 298 298 298 298 298
279 280 280 281 283 284 285 286 287 289 291 292 293 295 295 294 293 292 292 293 293 293 293 294 295 294 294 295 295 294 295 296 297 297 297 297 298 298 296 296 297 297 296
278 278 279 282 283 285 286 287 289 290 291 292 294 296 297 295 294 292 293 294 294 294 294 294 295 296 295 295 295 295 295 295 296 296 297 298 298 297 297 297 296 295 295
278 278 279 282 285 286 287 288 290 291 292 293 295 295 295 294 294 295 295 295 295 295 295 295 295 295 295 295 296 296 295 296 297 298 299 299 299 299 298 298 297 295 294
279 280 282 283 285 286 287 288 289 290 292 292 293 294 295 295 295 297 298 297 297 298 298 298 298 298 297 297 296 296 297 297 298 299 299 300 300 300 299 299 298 296 295
280 281 281 281 283 285 286 287 288 290 291 291 292 293 294 295 297 298 299 299 298 298 298 297 297 297 297 296 297 298 299 299 299 299 300 300 300 300 300 300 299 297 295
281 282 282 282 283 285 286 288 289 290 291 292 292 293 295 296 297 298 299 299 298 298 297 298 298 298 298 297 298 300 301 301 301 300 300 300 300 300 299 299 298 296 295
282 283 285 285 285 285 287 288 289 290 291 293 294 295 295 296 297 299 299 299 299 298 298 298 297 296 298 300 300 301 302 302 301 300 301 301 301 301 301 300 298 295 295
283 284 284 285 285 285 286 287 288 290 292 294 294 295 296 296 297 298 299 299 298 298 298 298 298 298 299 300 301 301 301 301 301 301 301 301 302 303 302 301 299 296 294
Height
5910 5910 5909 5909 5908 5907 5907 5906 5906 5905 5904 5904 5903 5902 5901 5900 5899 5898 5897 5896 5894 5893 5891 5890 5888 5886 5884 5882 5880 5878 5876 5874 5872 5870 5867 5865 5863 5860 5858 5856 5854 5851 5848
5908 5908 5907 5907 5906 5906 5905 5904 5903 5903 5902 5901 5900 5899 5898 5897 5896 5895 5894 5893 5891 5890 5888 5887 5885 5883 5881 5879 5877 5875 5872 5870 5868 5866 5864 5861 5859 5856 5854 5852 5850 5847 5844
5906 5905 5905 5905 5904 5903 5902 5901 5901 5900 5899 5898 5897 5896 5895 5894 5893 5892 5891 5890 5888 5886 5885 5883 5881 5879 5877 5875 5873 5871 5868 5866 5864 5862 5860 5858 5855 5852 5849 5847 5844 5842 5839
5903 5903 5903 5902 5901 5900 5899 5898 5898 5897 5896 5895 5894 5893 5892 5890 5889 5888 5887 5886 5884 5883 5881 5879 5877 5875 5873 5870 5868 5866 5864 5861 5859 5856 5854 5852 5850 5847 5844 5841 5839 5836 5834
5900 5900 5899 5898 5898 5897 5896 5895 5894 5893 5892 5891 5890 5889 5888 5887 5885 5884 5883 5881 5880 5878 5876 5874 5872 5870 5868 5866 5863 5861 5858 5856 5853 5851 5848 5846 5844 5841 5838 5835 5832 5829 5827
5896 5896 5895 5895 5894 5893 5892 5891 5890 5889 5888 5887 5886 5885 5883 5882 5881 5880 5878 5877 5875 5873 5872 5870 5867 5865 5863 5860 5858 5855 5852 5849 5847 5844 5842 5839 5836 5833 5831 5828 5825 5823 5820
5892 5892 5891 5891 5890 5889 5888 5887 5885 5884 5883 5882 5881 5879 5878 5877 5875 5874 5873 5871 5869 5868 5866 5864 5862 5860 5857 5854 5851 5849 5846 5843 5840 5837 5834 5831 5828 5826 5823 5820 5817 5814 5812
5888 5887 5887 5886 5885 5884 5883 5882 5880 5879 5878 5876 5875 5874 5873 5872 5870 5869 5867 5865 5864 5862 5860 5858 5855 5853 5850 5848 5845 5842 5839 5836 5832 5829 5826 5823 5820 5817 5814 5811 5808 5806 5803
5883 5882 5882 5881 5880 5879 5878 5876 5875 5874 5872 5871 5870 5869 5868 5866 5864 5863 5861 5859 5857 5855 5853 5851 5848 5846 5843 5840 5837 5834 5831 5828 5824 5820 5817 5814 5811 5808 5805 5802 5799 5796 5794
5877 5876 5876 5875 5874 5873 5872 5870 5869 5868 5866 5865 5864 5863 5861 5859 5857 5856 5854 5852 5850 5848 5846 5843 5841 5838 5835 5832 5829 5826 5822 5819 5815 5811 5808 5805 5801 5798 5795 5792 5789 5786 5784
5871 5870 5869 5868 5867 5866 5865 5863 5862 5861 5859 5858 5857 5856 5854 5852 5851 5849 5847 5844 5842 5840 5838 5835 5833 5830 5827 5823 5820 5816 5813 5809 5806 5802 5799 5795 5792 5789 5786 5782 5779 5776 5773
5864 5863 5862 5861 5859 5858 5857 5856 5854 5853 5852 5851 5849 5848 5847 5845 5843 5841 5839 5836 5834 5832 5829 5827 5824 5821 5818 5814 5810 5807 5803 5800 5796 5793 5789 5786 5783 5779 5776 5772 5769 5766 5762
5857 5856 5854 5853 5851 5850 5848 5847 5846 5845 5844 5842 5841 5840 5838 5836 5834 5832 5830 5827 5825 5822 5820 5817 5814 5811 5808 5804 5801 5797 5794 5790 5786 5782 5779 5775 5772 5769 5765 5762 5759 5755 5752
5849 5848 5846 5845 5843 5842 5840 5839 5837 5836 5835 5833 5832 5830 5828 5826 5825 5822 5820 5818 5815 5812 5809 5806 5803 5801 5797 5794 5791 5787 5783 5779 5775 5772 5768 5765 5761 5758 5755 5751 5748 5745 5741
5841 5839 5838 5836 5835 5833 5832 5830 5829 5827 5825 5824 5822 5820 5818 5816 5814 5812 5809 5806 5803 5801 5797 5795 5792 5789 5786 5783 5779 5776 5772 5768 5765 5761 5757 5754 5751 5747 5744 5740 5736 5733 5729
5831 5830 5829 5828 5826 5825 5823 5822 5820 5818 5816 5814 5812 5809 5807 5805 5803 5800 5798 5795 5792 5789 5786 5783 5781 5777 5774 5771 5768 5764 5760 5757 5753 5750 5746 5743 5739 5735 5732 5729 5725 5721 5718
5822 5821 5820 5818 5817 5815 5814 5812 5811 5809 5807 5805 5802 5800 5797 5794 5792 5789 5786 5783 5780 5777 5774 5771 5769 5766 5762 5758 5755 5752 5748 5745 5741 5738 5735 5731 5728 5724 5721 5717 5714 5710 5707
5812 5811 5810 5809 5807 5806 5804 5803 5801 5800 5797 5795 5792 5789 5786 5783 5780 5777 5774 5771 5768 5765 5762 5759 5756 5753 5750 5746 5743 5740 5736 5733 5729 5726 5723 5719 5716 5712 5709 5705 5702 5698 5695
5802 5801 5800 5799 5797 5796 5794 5792 5790 5788 5786 5784 5782 5778 5775 5772 5769 5765 5762 5758 5755 5752 5749 5746 5743 5740 5737 5734 5731 5728 5725 5721 5718 5714 5711 5707 5704 5700 5697 5693 5690 5686 5682
5792 5791 5790 5789 5787 5786 5784 5782 5780 5778 5776 5773 5770 5767 5764 5761 5757 5754 5750 5747 5743 5740 5737 5734 5731 5728 5725 5722 5719 5716 5713 5709 5706 5702 5699 5695 5692 5688 5684 5681 5677 5673 5670
5782 5781 5780 5779 5777 5775 5773 5771 5769 5767 5765 5762 5760 5757 5753 5750 5747 5743 5739 5736 5733 5729 5726 5723 5720 5716 5713 5710 5707 5703 5700 5697 5694 5690 5686 5683 5680 5676 5672 5668 5664 5661 5657
5772 5771 5769 5768 5767 5765 5763 5761 5759 5757 5754 5751 5748 5745 5742 5738 5735 5731 5728 5724 5721 5717 5714 5710 5707 5704 5701 5698 5695 5691 5688 5684 5681 5678 5674 5671 5667 5663 5660 5655 5651 5648 5645
5762 5760 5759 5758 5757 5755 5753 5751 5748 5746 5743 5740 5737 5734 5731 5728 5724 5720 5716 5712 5709 5705 5702 5699 5696 5693 5689 5686 5683 5679 5676 5672 5669 5666 5662 5658 5654 5651 5647 5643 5639 5635 5631
5752 5750 5749 5748 5746 5744 5742 5740 5737 5735 5732 5729 5726 5723 5720 5717 5713 5709 5705 5701 5698 5694 5691 5688 5685 5682 5678 5675 5671 5668 5664 5661 5657 5654 5650 5646 5643 5639 5635 5631 5627 5623 5620
5741 5740 5738 5736 5735 5733 5731 5729 5726 5724 5721 5718 5715 5712 5709 5705 5702 5698 5694 5690 5687 5683 5680 5677 5674 5671 5667 5664 5660 5657 5653 5649 5646 5642 5638 5635 5631 5627 5623 5619 5616 5612 5609
5731 5730 5728 5726 5724 5722 5720 5718 5716 5713 5711 5708 5704 5701 5697 5693 5690 5687 5683 5680 5676 5673 5670 5666 5663 5660 5656 5653 5649 5646 5642 5639 5635 5631 5627 5624 5620 5616 5612 5608 5605 5602 5599